GSAT0208 (GALILEO 11)

Last updated on Sun Jun 21 2026 00:02:55 GMT+0000 (Coordinated Universal Time)

1 41175U 15079B 26170.60543083 -.00000012 00000+0 00000+0 0 9997 2 41175 55.8273 101.1925 0004854 343.5334 16.4302 1.70473634 65232
UTC large
Height (km)
Speed (km/s)
/
Latitude / Longitude
Inclination (degrees)
Orbital Period (minutes)
Azimuth
Elevation
Range (km)
Doppler Factor

Next 0 passes for location: London (51.5072 / 0.1276)

No passes found over London.
GSAT0208 (GALILEO 11)